Wind_Speed
14 15 14 13 12 10 7 6 6 5 5 4 5 5 5 6 6 7 7 7 6 6 6 6 5 4 4 4 4 3 3 3 3 3 3 2 2 2 2 2 2 3 3 3 3 3 2 2 1
14 14 14 13 11 7 7 6 6 6 6 5 4 5 5 6 6 6 6 6 6 6 5 5 5 5 5 5 4 3 4 4 3 3 3 2 2 3 3 3 4 4 3 3 3 3 2 2 1
13 13 13 12 8 6 6 6 6 6 6 5 5 5 5 6 6 6 6 6 6 5 5 5 5 5 5 5 4 3 4 4 3 3 3 2 2 4 4 4 4 4 4 3 3 3 2 2 1
12 12 12 11 7 5 5 6 6 5 5 5 5 5 5 6 6 6 6 6 6 6 5 5 5 5 5 5 5 4 4 4 3 3 3 2 2 3 4 5 4 4 4 4 3 3 3 2 2
11 11 12 8 6 5 4 5 5 5 5 6 6 6 6 6 6 6 6 6 6 7 6 6 6 6 6 6 5 5 5 4 3 3 2 2 3 3 4 4 4 4 4 4 3 3 3 3 2
12 13 11 6 5 4 4 4 5 6 6 6 6 6 7 7 7 7 7 7 7 7 7 6 6 6 7 7 6 5 5 4 4 3 3 2 2 2 3 3 4 4 4 3 3 3 3 3 3
13 13 9 7 5 5 5 4 5 6 6 7 8 8 8 8 7 8 8 8 8 8 8 7 7 7 7 7 6 5 5 4 4 4 4 3 2 2 2 3 2 3 3 3 3 3 3 3 3
12 12 9 6 5 5 5 5 5 6 6 6 7 8 8 8 8 9 9 9 9 9 8 8 9 8 8 7 6 5 4 4 4 4 4 3 3 2 2 2 2 2 2 2 3 3 4 3 4
10 9 7 5 4 5 5 5 5 6 6 6 7 8 8 9 9 9 9 9 9 9 9 9 10 9 8 7 6 5 4 4 5 4 4 3 3 3 3 2 2 2 2 2 3 3 4 5 5
8 7 5 4 4 4 4 4 5 6 6 5 6 7 9 10 10 10 10 9 9 9 10 11 10 10 9 9 8 6 5 4 4 4 3 3 4 4 3 3 2 3 3 3 3 4 5 5 6
6 5 5 4 5 4 4 4 4 5 6 6 6 7 9 10 10 10 10 10 10 10 10 11 11 10 10 9 8 7 6 6 4 4 4 4 5 5 4 3 3 3 4 4 4 4 5 5 6
5 4 5 5 5 4 4 4 4 5 6 7 6 7 8 9 10 10 10 10 10 11 11 12 11 11 11 10 9 8 7 6 6 5 5 6 5 5 5 5 5 4 4 4 4 4 5 5 6
5 6 5 5 5 5 5 4 4 5 6 7 7 8 8 9 10 10 11 11 11 11 11 12 12 12 12 11 11 10 8 7 7 7 6 6 6 5 5 6 6 6 5 5 4 4 4 5 5
6 5 6 5 4 5 5 5 5 5 7 8 8 9 9 9 9 10 10 10 10 11 12 11 12 12 12 12 11 10 9 9 8 7 7 6 6 6 6 6 7 6 5 5 4 4 4 5 5
5 6 6 6 5 4 5 6 6 6 7 8 9 10 10 9 9 9 9 10 11 12 11 11 12 12 12 12 11 11 10 10 9 9 8 7 7 6 6 6 7 6 5 5 5 5 5 5 5
5 6 6 5 6 6 5 6 6 8 8 9 9 9 9 9 8 9 10 11 11 12 11 11 11 12 12 12 12 12 11 10 10 10 10 9 8 6 6 7 7 6 6 6 6 6 6 5 5
7 5 4 4 5 5 5 6 7 8 8 9 9 9 9 9 8 9 9 10 11 11 11 11 11 11 12 12 12 12 12 11 10 10 10 9 8 8 7 7 7 8 7 7 7 7 6 6 6
3 2 2 3 4 5 5 5 6 7 8 9 10 10 10 9 8 8 9 10 11 11 10 11 11 11 12 12 12 12 12 12 11 11 10 9 9 8 8 8 8 9 9 8 8 8 7 7 7
1 1 1 2 2 3 5 5 6 7 8 9 9 9 10 9 9 9 9 9 10 11 11 10 11 11 11 11 12 12 12 12 12 12 11 10 9 9 9 9 9 9 9 8 8 8 8 8 8
2 1 0 2 4 4 5 6 6 7 8 8 8 8 9 10 9 9 8 9 10 10 10 10 10 11 12 12 12 12 12 12 12 13 12 11 10 10 9 10 10 10 9 9 9 9 9 9 8
4 3 2 1 4 4 6 8 7 8 8 8 9 9 9 9 9 8 8 8 9 10 10 10 10 10 11 12 12 12 12 12 12 13 13 13 12 11 11 11 11 10 10 9 9 9 8 8 8
4 3 2 3 3 4 6 10 10 10 9 9 9 9 9 9 8 8 8 8 9 10 11 10 10 11 11 11 12 12 13 13 13 13 13 13 13 13 12 12 11 11 10 9 9 9 9 8 7
4 4 4 4 3 5 6 9 11 10 11 10 10 10 10 9 9 8 8 9 9 10 11 10 10 11 11 11 12 12 13 13 14 14 14 14 13 13 12 12 12 12 12 11 10 9 9 9 9
5 4 4 4 4 6 7 9 11 10 10 10 11 12 11 11 10 9 9 9 10 11 11 11 12 12 12 12 13 13 13 14 14 14 14 15 15 14 13 13 13 13 12 11 11 10 10 10 10
6 4 4 5 5 7 8 9 12 11 11 10 11 12 12 12 11 10 10 10 11 12 12 12 13 13 14 14 14 14 14 15 15 15 15 16 15 14 14 14 14 13 13 12 12 11 11 11 11
7 4 5 6 7 9 8 9 11 14 13 13 13 13 13 13 12 11 12 12 13 13 13 14 14 15 16 15 15 15 16 16 16 16 17 17 16 15 15 15 15 14 13 13 13 12 12 12 12
9 7 6 8 8 12 9 11 12 14 15 15 15 15 14 13 13 13 13 13 13 14 14 15 15 16 16 17 16 17 17 17 17 17 17 17 17 17 17 16 16 16 15 14 14 14 13 13 13
11 10 9 9 11 12 11 10 12 14 15 17 17 16 15 14 14 14 14 14 14 15 15 16 16 17 17 17 18 18 18 19 19 19 18 18 18 19 18 17 17 16 16 15 15 15 15 15 15
13 12 12 11 11 11 13 12 14 14 15 16 17 16 15 15 15 16 16 16 16 16 16 16 17 18 18 18 19 19 19 19 20 20 19 20 20 20 20 19 19 18 17 16 16 16 17 17 16
14 14 12 12 12 12 15 16 15 17 18 17 17 17 16 16 16 17 17 17 17 17 17 18 18 19 19 20 20 20 20 20 20 21 20 21 21 21 21 21 20 20 19 18 18 18 18 18 18
Wind_Direction
91 91 90 87 81 73 71 65 61 59 61 59 52 47 45 43 40 42 42 39 38 37 37 36 38 34 32 31 34 27 27 26 33 39 42 58 62 85 84 91 110 108 115 107 93 93 83 70 43
92 95 90 83 74 64 61 59 58 53 48 46 43 44 41 39 36 38 42 39 34 31 30 32 35 35 35 33 37 32 32 28 33 25 29 40 57 76 83 99 106 101 98 93 91 88 72 56 48
91 91 85 76 62 48 53 53 52 50 47 43 39 40 39 34 34 34 38 35 30 31 28 23 26 28 29 29 28 26 28 30 30 28 32 37 59 69 76 93 99 92 87 85 79 70 59 46 51
96 86 78 70 54 35 46 59 65 47 43 42 39 38 35 33 35 35 34 33 27 27 25 17 13 18 20 26 25 27 28 25 25 27 37 42 57 64 78 91 92 88 85 81 67 64 54 45 45
92 85 70 61 53 45 49 53 54 44 38 38 38 33 31 33 33 30 34 33 28 24 21 19 16 20 23 22 18 21 25 26 30 33 53 64 69 78 78 88 82 80 76 75 67 59 44 41 46
90 72 68 59 48 52 49 47 39 39 36 33 33 32 31 34 33 31 34 32 29 23 23 23 16 11 21 26 26 32 29 35 46 44 42 56 80 88 81 85 76 78 72 57 50 34 33 37 30
81 76 70 48 41 52 43 41 37 35 32 28 27 27 29 31 31 29 32 32 26 21 21 20 21 17 21 19 21 28 31 42 44 36 33 54 79 94 82 69 71 67 58 43 29 21 16 12 4
79 76 68 51 33 49 41 31 31 30 31 32 30 27 28 31 32 34 32 29 24 19 22 28 18 14 20 22 25 28 32 29 27 31 26 28 44 49 46 54 60 53 41 30 18 9 357 351 346
77 76 75 65 38 38 35 25 26 26 21 34 33 32 34 35 32 30 32 33 28 22 18 15 15 15 17 22 22 27 30 23 16 21 22 22 25 25 35 33 33 24 2 357 351 351 350 343 338
76 67 63 53 53 36 24 31 16 20 28 30 31 32 35 36 33 30 31 33 33 26 20 18 17 16 20 24 22 24 26 24 14 17 24 23 22 16 11 11 359 354 347 342 336 335 337 335 340
74 63 57 49 52 39 21 32 23 17 27 29 27 29 29 29 30 31 31 31 29 25 23 19 18 16 21 23 22 21 19 20 19 20 11 9 12 15 10 356 342 342 339 334 334 330 335 340 343
89 66 54 49 51 47 27 23 24 23 23 27 27 29 25 23 22 23 24 23 24 22 20 18 18 15 17 22 21 20 15 18 20 17 15 15 11 8 1 357 346 335 326 320 327 337 341 339 339
75 53 50 49 51 50 39 24 18 20 18 18 24 23 21 19 18 17 17 16 16 17 19 22 23 23 24 23 21 18 15 16 13 7 3 4 3 6 356 347 347 347 336 323 309 317 325 329 330
69 58 46 43 38 37 30 19 16 19 12 15 16 18 19 19 18 19 20 19 17 16 20 26 27 27 27 25 23 22 20 16 12 5 358 354 355 356 355 347 346 344 337 328 323 326 324 325 326
75 65 52 33 25 28 21 14 8 12 9 11 15 15 15 16 20 22 22 20 17 17 22 24 26 26 26 25 23 22 22 19 14 11 6 358 352 351 353 350 350 348 341 334 331 329 329 327 330
61 62 44 22 14 10 15 4 8 11 7 8 12 15 16 16 22 22 22 20 20 22 24 23 24 25 24 23 22 20 19 17 13 10 7 2 358 351 349 347 347 344 343 334 325 320 321 321 324
49 44 16 20 22 2 2 353 7 6 -0 0 6 12 17 18 19 19 18 19 18 21 23 23 23 22 20 20 19 17 16 14 11 8 7 6 4 355 347 340 339 336 332 328 321 314 315 311 312
51 48 8 3 15 359 350 353 356 354 354 356 0 3 9 13 18 17 18 18 18 22 24 24 24 21 18 17 17 15 14 14 12 11 12 9 5 358 351 343 337 333 329 327 320 311 307 307 310
41 22 338 333 342 337 340 340 343 342 349 349 353 356 0 9 12 13 15 17 18 20 20 18 18 17 15 13 14 13 12 11 11 11 11 9 1 357 352 346 340 334 328 321 314 311 305 302 305
219 246 332 358 345 338 330 332 339 342 344 342 345 351 353 3 7 3 10 15 14 15 16 16 12 9 10 7 7 7 6 5 5 5 4 2 358 353 348 346 344 338 331 326 318 311 306 300 298
238 259 286 314 322 338 327 328 339 342 340 342 341 341 344 354 0 9 10 9 9 10 10 9 6 3 3 1 1 1 360 359 358 358 357 356 355 352 347 344 340 338 335 325 321 319 307 304 302
242 246 271 290 303 327 327 322 330 336 336 336 338 337 344 347 355 357 358 358 0 1 1 360 359 360 358 355 352 353 353 352 353 352 353 353 351 347 343 344 345 343 340 337 331 325 321 311 307
247 243 248 267 289 287 310 314 316 325 327 327 329 329 337 337 340 342 343 346 348 351 352 352 354 352 352 350 347 345 345 345 347 345 346 346 346 345 345 344 341 340 339 336 331 325 319 312 306
248 252 272 273 277 286 304 305 301 309 319 322 322 324 330 329 327 329 331 335 338 343 345 347 345 341 341 341 340 339 337 336 337 338 338 337 335 334 336 337 334 332 332 331 328 324 318 313 310
259 264 275 277 287 292 294 292 294 304 311 316 316 319 320 319 319 319 321 324 327 332 336 338 338 336 335 332 332 334 334 333 333 333 332 333 331 329 330 330 328 326 326 324 321 318 314 314 309
251 250 271 279 286 276 268 281 297 305 307 310 311 311 313 312 311 313 316 317 319 322 325 327 330 330 331 330 328 329 331 331 329 329 328 330 329 328 328 324 323 322 320 318 316 316 314 311 309
244 236 247 262 280 282 277 278 288 298 304 306 306 307 306 308 308 305 309 315 316 317 319 321 322 324 325 326 324 324 324 324 323 322 321 322 324 324 323 322 318 316 315 314 312 310 311 308 306
248 242 242 252 272 280 289 288 290 298 299 303 302 303 304 301 300 300 303 308 310 311 313 316 317 319 321 322 323 322 321 320 318 317 318 319 319 320 320 318 318 314 311 310 310 307 306 305 303
247 246 252 251 254 273 282 277 282 288 297 300 300 301 303 304 300 303 305 303 305 308 312 313 314 316 316 316 317 317 317 319 320 318 316 316 315 314 315 315 313 310 308 306 306 305 305 304 303
245 250 252 263 264 264 275 283 280 285 291 294 296 298 298 298 300 302 304 305 307 309 310 311 312 313 313 314 314 314 314 315 316 318 317 314 313 312 310 310 309 307 304 303 301 300 301 303 302
Height
5893 5893 5894 5895 5895 5895 5894 5894 5893 5893 5892 5892 5891 5891 5890 5889 5889 5891 5887 5885 5885 5884 5884 5883 5882 5881 5881 5880 5880 5879 5879 5878 5878 5878 5877 5877 5876 5875 5875 5874 5874 5874 5875 5876 5877 5877 5878 5878 5878
5895 5895 5896 5896 5896 5896 5896 5895 5895 5895 5894 5893 5892 5892 5891 5890 5890 5889 5887 5887 5886 5885 5885 5884 5883 5882 5882 5881 5880 5880 5879 5879 5878 5878 5878 5877 5876 5876 5876 5875 5875 5876 5876 5877 5878 5878 5878 5878 5878
5897 5898 5898 5898 5898 5898 5898 5897 5897 5896 5896 5895 5894 5894 5893 5892 5891 5889 5889 5888 5887 5886 5885 5884 5884 5883 5882 5882 5881 5880 5880 5879 5879 5879 5878 5878 5878 5876 5877 5877 5877 5877 5878 5878 5879 5879 5879 5879 5879
5899 5899 5899 5901 5901 5901 5900 5899 5899 5899 5897 5896 5896 5895 5894 5893 5892 5891 5890 5889 5888 5887 5886 5886 5885 5884 5883 5882 5882 5881 5881 5880 5880 5879 5879 5879 5879 5878 5878 5878 5878 5879 5879 5879 5880 5880 5879 5879 5879
5901 5901 5901 5904 5903 5903 5902 5901 5901 5900 5899 5898 5897 5896 5895 5895 5894 5892 5891 5890 5889 5888 5887 5887 5886 5885 5884 5883 5883 5882 5881 5881 5880 5880 5880 5880 5880 5880 5880 5880 5880 5880 5880 5880 5880 5880 5880 5879 5879
5903 5902 5904 5905 5905 5905 5904 5903 5902 5902 5901 5900 5899 5898 5897 5896 5895 5893 5892 5891 5890 5889 5888 5887 5887 5886 5885 5884 5884 5883 5882 5882 5881 5881 5881 5881 5881 5881 5881 5881 5881 5881 5881 5881 5881 5881 5881 5880 5880
5904 5906 5907 5908 5907 5907 5906 5905 5904 5904 5903 5902 5901 5900 5899 5897 5896 5895 5894 5893 5891 5890 5889 5888 5888 5887 5886 5885 5885 5884 5884 5883 5883 5882 5882 5882 5882 5882 5882 5882 5882 5882 5882 5882 5882 5882 5881 5881 5880
5908 5910 5910 5910 5909 5909 5908 5906 5906 5905 5905 5904 5903 5902 5900 5899 5898 5897 5895 5894 5893 5892 5890 5889 5889 5887 5887 5886 5885 5885 5884 5884 5884 5883 5883 5883 5883 5883 5882 5882 5883 5883 5883 5883 5882 5882 5881 5881 5880
5912 5913 5912 5913 5912 5911 5910 5909 5907 5907 5906 5906 5905 5904 5902 5901 5899 5898 5897 5896 5895 5893 5892 5890 5890 5888 5888 5887 5886 5886 5885 5884 5884 5884 5883 5883 5883 5883 5883 5883 5883 5883 5883 5883 5883 5883 5882 5881 5880
5914 5914 5914 5914 5913 5912 5911 5911 5909 5908 5908 5907 5906 5905 5904 5902 5901 5900 5899 5897 5896 5895 5894 5892 5891 5890 5889 5888 5887 5886 5885 5885 5884 5884 5884 5884 5884 5884 5884 5884 5884 5883 5883 5883 5883 5883 5882 5881 5881
5916 5916 5916 5915 5914 5914 5913 5912 5911 5910 5909 5909 5908 5907 5906 5904 5903 5902 5900 5899 5898 5897 5895 5894 5892 5891 5889 5889 5888 5887 5886 5886 5885 5885 5885 5884 5884 5884 5884 5884 5884 5883 5883 5883 5883 5882 5882 5881 5880
5918 5917 5917 5917 5916 5915 5914 5914 5913 5912 5912 5910 5909 5908 5907 5906 5904 5903 5902 5901 5899 5898 5897 5895 5894 5892 5891 5890 5889 5888 5887 5886 5886 5885 5885 5885 5885 5884 5884 5884 5884 5883 5883 5883 5882 5881 5881 5881 5880
5919 5919 5919 5918 5917 5917 5916 5915 5915 5913 5913 5912 5911 5910 5908 5907 5906 5905 5903 5902 5900 5899 5898 5896 5895 5893 5892 5891 5890 5889 5888 5887 5886 5886 5885 5885 5885 5885 5884 5884 5883 5883 5882 5882 5882 5881 5881 5880 5880
5920 5920 5920 5920 5919 5919 5918 5917 5916 5915 5914 5914 5912 5911 5909 5908 5907 5906 5905 5903 5902 5900 5899 5897 5896 5895 5894 5892 5891 5890 5889 5888 5887 5886 5886 5885 5885 5884 5884 5883 5883 5882 5881 5881 5881 5881 5880 5880 5879
5921 5921 5922 5921 5921 5920 5920 5919 5918 5916 5916 5915 5913 5912 5911 5910 5909 5907 5906 5905 5903 5901 5900 5899 5897 5896 5895 5894 5892 5891 5890 5889 5888 5887 5886 5885 5885 5884 5884 5883 5883 5882 5881 5880 5880 5880 5879 5879 5878
5921 5923 5924 5924 5923 5922 5923 5920 5919 5918 5917 5916 5915 5914 5912 5911 5910 5908 5907 5906 5904 5903 5901 5900 5899 5898 5896 5895 5894 5892 5891 5890 5889 5888 5887 5886 5885 5884 5884 5883 5882 5881 5880 5880 5880 5879 5878 5878 5877
5924 5926 5926 5926 5925 5924 5923 5922 5920 5920 5919 5917 5916 5914 5913 5912 5911 5910 5908 5907 5905 5904 5902 5901 5900 5899 5898 5896 5895 5894 5892 5891 5890 5889 5887 5886 5885 5884 5883 5883 5882 5881 5880 5879 5879 5878 5877 5877 5876
5928 5927 5927 5927 5926 5926 5924 5924 5922 5921 5920 5918 5917 5915 5914 5913 5912 5911 5909 5908 5907 5905 5904 5903 5901 5900 5899 5898 5896 5895 5893 5892 5891 5889 5887 5886 5885 5884 5883 5882 5882 5881 5880 5879 5878 5877 5876 5875 5875
5928 5928 5928 5928 5927 5927 5926 5924 5924 5922 5921 5919 5918 5916 5915 5914 5913 5912 5910 5909 5908 5906 5905 5904 5902 5901 5900 5898 5897 5896 5894 5893 5891 5889 5888 5886 5885 5884 5883 5882 5881 5880 5879 5878 5877 5876 5875 5874 5874
5928 5928 5928 5928 5927 5927 5926 5925 5924 5923 5922 5920 5919 5917 5916 5915 5914 5912 5911 5910 5909 5907 5906 5905 5903 5902 5900 5899 5897 5896 5895 5893 5892 5890 5888 5887 5885 5884 5883 5882 5881 5879 5878 5876 5875 5874 5873 5872 5872
5928 5929 5928 5928 5928 5927 5927 5925 5924 5923 5922 5920 5919 5918 5916 5915 5914 5912 5912 5911 5909 5908 5907 5905 5904 5903 5901 5899 5898 5896 5895 5893 5892 5890 5889 5887 5885 5884 5882 5881 5880 5878 5877 5875 5874 5872 5872 5871 5870
5928 5928 5928 5928 5928 5928 5928 5927 5925 5924 5922 5921 5919 5917 5915 5915 5914 5913 5912 5911 5910 5909 5907 5906 5904 5903 5901 5900 5898 5897 5895 5893 5892 5890 5889 5887 5885 5884 5882 5881 5879 5877 5876 5874 5873 5872 5870 5869 5868
5927 5927 5927 5927 5927 5928 5928 5928 5926 5924 5922 5921 5920 5918 5916 5915 5914 5913 5912 5911 5910 5909 5907 5906 5904 5903 5901 5900 5898 5897 5895 5893 5892 5890 5888 5887 5885 5883 5882 5880 5878 5877 5875 5873 5871 5870 5869 5868 5867
5926 5927 5927 5927 5927 5927 5928 5927 5925 5923 5922 5921 5919 5918 5916 5915 5913 5912 5912 5911 5910 5909 5907 5905 5904 5903 5901 5899 5898 5896 5894 5892 5891 5889 5888 5886 5884 5882 5880 5879 5877 5875 5874 5872 5870 5869 5867 5866 5865
5926 5927 5927 5927 5927 5927 5927 5926 5924 5922 5921 5920 5919 5917 5916 5914 5912 5911 5911 5910 5909 5908 5907 5905 5904 5902 5900 5898 5897 5895 5893 5891 5889 5888 5886 5885 5883 5881 5879 5877 5876 5874 5872 5871 5869 5867 5866 5865 5864
5925 5925 5927 5927 5927 5926 5926 5924 5923 5921 5919 5919 5918 5916 5915 5913 5911 5910 5909 5908 5907 5906 5905 5904 5902 5901 5899 5897 5895 5893 5891 5890 5888 5886 5884 5882 5880 5878 5877 5875 5874 5872 5870 5868 5867 5865 5864 5862 5861
5923 5924 5926 5926 5925 5924 5923 5922 5920 5919 5918 5917 5916 5914 5913 5912 5910 5908 5907 5906 5905 5904 5903 5902 5900 5899 5897 5895 5893 5891 5889 5888 5886 5884 5882 5880 5878 5876 5874 5872 5871 5869 5867 5866 5864 5863 5861 5859 5858
5920 5922 5923 5923 5923 5922 5921 5920 5919 5918 5916 5915 5914 5912 5911 5910 5908 5906 5905 5904 5904 5902 5901 5900 5898 5897 5895 5893 5891 5889 5887 5885 5883 5881 5879 5877 5875 5874 5872 5870 5868 5866 5864 5862 5861 5860 5858 5856 5855
5919 5920 5919 5920 5920 5920 5919 5920 5916 5915 5914 5913 5911 5910 5909 5907 5906 5904 5903 5902 5901 5900 5899 5897 5895 5894 5892 5891 5889 5886 5884 5882 5880 5878 5876 5874 5872 5870 5868 5866 5864 5863 5861 5859 5858 5856 5855 5853 5852
5915 5916 5917 5918 5917 5917 5916 5917 5913 5912 5911 5910 5909 5907 5906 5905 5903 5902 5901 5900 5899 5897 5896 5894 5893 5891 5889 5887 5885 5883 5881 5879 5877 5875 5872 5870 5868 5866 5864 5862 5860 5859 5857 5856 5854 5853 5851 5849 5848